Multibeam Report for TN283


Ship Name: Thomas G. Thompson
Chief Scientist: Allen, Richard and Tolstoy, Maria
University of California, Berkeley, Lamont-Doherty Earth Observatory
Source Organization: Rolling Deck to Repository
Start Date: 2012-07-10
End Date: 2012-07-24


View ISO Metadata

Visit the full NCEI Bathymetry Viewer


Multibeam Bathymetry

Cruise Details

Project: NSF Cascadia Initiative, 2012 Leg 2
Instrument: Simrad EM302

Data Quality

Number of Files: 452
Number of Records: 1092397
BATHYMETRY DATA Quantity Percentage
Number of Beams 459259632 100%
Number of Good Beams 442300745 96.31%
Number of Zero Beams 0 0%
Number of Flagged Beams 16958887 3.69%
AMPLITUDE DATA Quantity Percentage
Number of Beams 459259632 100%
Number of Good Beams 442300745 96.31%
Number of Zero Beams 0 0%
Number of Flagged Beams 16958887 3.69%
SIDESCAN DATA Quantity Percentage
Number of Pixels 1088615424 100%
Number of Good Pixels 815632996 74.92%
Number of Zero Pixels 0 0%
Number of Flagged Pixels 272982428 25.08%

Navigation Totals

Total Time: 198.5624 hours
Total Track Length: 3262.3902 km
Average Speed: 16.43 km/hr (8.8715 knots)

Cruise Bounds

Northern Extent: 48.51019
Southern Extent: 43.62034
Western Extent: -126.470924
Eastern Extent: -122.42956

Limits

Minimum Sonar Depth 2.7254 Maximum Sonar Depth 8.861
Minimum Altitude 13.994 Maximum Altitude 4208.6543
Minimum Depth 16.6622 Maximum Depth 3940.9604
Minimum Amplitude 0 Maximum Amplitude 68.2
Minimum Sidescan 0 Maximum Sidescan 74.25

File Information

Full Resolution Bathymetry as collected (raw): 448

Files File Size Description
0001_20120710_183129_TGT.all.mb58.gz 72.75MB Kongsberg multibeam vendor format
0002_20120710_190129_TGT.all.mb58.gz 83.06MB Kongsberg multibeam vendor format
0003_20120710_193129_TGT.all.mb58.gz 104.68MB Kongsberg multibeam vendor format
0004_20120710_200129_TGT.all.mb58.gz 104.23MB Kongsberg multibeam vendor format
0005_20120710_203129_TGT.all.mb58.gz 132.31MB Kongsberg multibeam vendor format
0006_20120710_210129_TGT.all.mb58.gz 135.74MB Kongsberg multibeam vendor format
0007_20120710_213129_TGT.all.mb58.gz 115.77MB Kongsberg multibeam vendor format
0008_20120710_220129_TGT.all.mb58.gz 107.77MB Kongsberg multibeam vendor format
0009_20120710_223129_TGT.all.mb58.gz 90.37MB Kongsberg multibeam vendor format
0010_20120710_230129_TGT.all.mb58.gz 79.34MB Kongsberg multibeam vendor format
0011_20120710_233129_TGT.all.mb58.gz 80.85MB Kongsberg multibeam vendor format
0012_20120711_000129_TGT.all.mb58.gz 82.15MB Kongsberg multibeam vendor format
0013_20120711_003129_TGT.all.mb58.gz 82.79MB Kongsberg multibeam vendor format
0014_20120711_010129_TGT.all.mb58.gz 81.49MB Kongsberg multibeam vendor format
0015_20120711_013129_TGT.all.mb58.gz 78.26MB Kongsberg multibeam vendor format
0016_20120711_020129_TGT.all.mb58.gz 73.01MB Kongsberg multibeam vendor format
0017_20120711_023130_TGT.all.mb58.gz 70.35MB Kongsberg multibeam vendor format
0018_20120711_030130_TGT.all.mb58.gz 72.58MB Kongsberg multibeam vendor format
0019_20120711_033129_TGT.all.mb58.gz 123.86MB Kongsberg multibeam vendor format
0020_20120711_040129_TGT.all.mb58.gz 97.97MB Kongsberg multibeam vendor format
0021_20120711_043129_TGT.all.mb58.gz 70.30MB Kongsberg multibeam vendor format
0022_20120711_045538_TGT.all.mb58.gz 95.90MB Kongsberg multibeam vendor format
0023_20120711_052536_TGT.all.mb58.gz 104.66MB Kongsberg multibeam vendor format
0024_20120711_055536_TGT.all.mb58.gz 89.89MB Kongsberg multibeam vendor format
0025_20120711_062538_TGT.all.mb58.gz 69.16MB Kongsberg multibeam vendor format
0026_20120711_065537_TGT.all.mb58.gz 42.58MB Kongsberg multibeam vendor format
0027_20120711_072540_TGT.all.mb58.gz 26.87MB Kongsberg multibeam vendor format
0028_20120711_075542_TGT.all.mb58.gz 21.31MB Kongsberg multibeam vendor format
0029_20120711_100042_TGT.all.mb58.gz 28.13MB Kongsberg multibeam vendor format
0030_20120711_103042_TGT.all.mb58.gz 27.93MB Kongsberg multibeam vendor format
0031_20120711_110038_TGT.all.mb58.gz 27.80MB Kongsberg multibeam vendor format
0032_20120711_113038_TGT.all.mb58.gz 26.88MB Kongsberg multibeam vendor format
0033_20120711_120038_TGT.all.mb58.gz 2.28MB Kongsberg multibeam vendor format
0034_20120711_120310_TGT.all.mb58.gz 20.62MB Kongsberg multibeam vendor format
0035_20120711_140701_TGT.all.mb58.gz 26.62MB Kongsberg multibeam vendor format
0036_20120711_143700_TGT.all.mb58.gz 26.72MB Kongsberg multibeam vendor format
0037_20120711_150701_TGT.all.mb58.gz 27.39MB Kongsberg multibeam vendor format
0038_20120711_153703_TGT.all.mb58.gz 27.55MB Kongsberg multibeam vendor format
0039_20120711_160705_TGT.all.mb58.gz 27.71MB Kongsberg multibeam vendor format
0040_20120711_163705_TGT.all.mb58.gz 27.90MB Kongsberg multibeam vendor format
0041_20120711_170659_TGT.all.mb58.gz 20.95MB Kongsberg multibeam vendor format
0042_20120711_183345_TGT.all.mb58.gz 28.09MB Kongsberg multibeam vendor format
0043_20120711_190342_TGT.all.mb58.gz 27.80MB Kongsberg multibeam vendor format
0044_20120711_193347_TGT.all.mb58.gz 27.54MB Kongsberg multibeam vendor format
0045_20120711_200343_TGT.all.mb58.gz 27.24MB Kongsberg multibeam vendor format
0046_20120711_203347_TGT.all.mb58.gz 27.20MB Kongsberg multibeam vendor format
0047_20120711_210343_TGT.all.mb58.gz 28.49MB Kongsberg multibeam vendor format
0048_20120711_213343_TGT.all.mb58.gz 20.50MB Kongsberg multibeam vendor format
0049_20120711_215418_TGT.all.mb58.gz 5.17MB Kongsberg multibeam vendor format
0050_20120712_035736_TGT.all.mb58.gz 100.6KB Kongsberg multibeam vendor format
0051_20120712_035839_TGT.all.mb58.gz 67.5KB Kongsberg multibeam vendor format
0052_20120712_035919_TGT.all.mb58.gz 0.54MB Kongsberg multibeam vendor format
0053_20120712_040047_TGT.all.mb58.gz 29.07MB Kongsberg multibeam vendor format
0054_20120712_043047_TGT.all.mb58.gz 29.21MB Kongsberg multibeam vendor format
0055_20120712_050047_TGT.all.mb58.gz 38.63MB Kongsberg multibeam vendor format
0056_20120712_053047_TGT.all.mb58.gz 42.63MB Kongsberg multibeam vendor format
0057_20120712_060048_TGT.all.mb58.gz 42.61MB Kongsberg multibeam vendor format
0058_20120712_063048_TGT.all.mb58.gz 42.36MB Kongsberg multibeam vendor format
0059_20120712_070047_TGT.all.mb58.gz 42.40MB Kongsberg multibeam vendor format
0060_20120712_073047_TGT.all.mb58.gz 42.21MB Kongsberg multibeam vendor format
0061_20120712_080048_TGT.all.mb58.gz 42.24MB Kongsberg multibeam vendor format
0062_20120712_083048_TGT.all.mb58.gz 31.99MB Kongsberg multibeam vendor format
0063_20120712_183251_TGT.all.mb58.gz 0.93MB Kongsberg multibeam vendor format
0064_20120712_183346_TGT.all.mb58.gz 497.4KB Kongsberg multibeam vendor format
0065_20120712_183441_TGT.all.mb58.gz 10.99MB Kongsberg multibeam vendor format
0066_20120712_184245_TGT.all.mb58.gz 1.15MB Kongsberg multibeam vendor format
0067_20120712_184333_TGT.all.mb58.gz 105.7KB Kongsberg multibeam vendor format
0068_20120712_184338_TGT.all.mb58.gz 42.81MB Kongsberg multibeam vendor format
0069_20120712_191331_TGT.all.mb58.gz 36.63MB Kongsberg multibeam vendor format
0070_20120712_194330_TGT.all.mb58.gz 45.47MB Kongsberg multibeam vendor format
0071_20120712_201331_TGT.all.mb58.gz 45.54MB Kongsberg multibeam vendor format
0072_20120712_204330_TGT.all.mb58.gz 49.39MB Kongsberg multibeam vendor format
0073_20120712_211329_TGT.all.mb58.gz 70.79MB Kongsberg multibeam vendor format
0074_20120712_225827_TGT.all.mb58.gz 103.34MB Kongsberg multibeam vendor format
0075_20120712_232827_TGT.all.mb58.gz 70.68MB Kongsberg multibeam vendor format
0076_20120712_235828_TGT.all.mb58.gz 86.06MB Kongsberg multibeam vendor format
0077_20120713_002547_TGT.all.mb58.gz 91.14MB Kongsberg multibeam vendor format
0078_20120713_005535_TGT.all.mb58.gz 89.87MB Kongsberg multibeam vendor format
0079_20120713_012536_TGT.all.mb58.gz 96.47MB Kongsberg multibeam vendor format
0080_20120713_015535_TGT.all.mb58.gz 133.80MB Kongsberg multibeam vendor format
0081_20120713_022535_TGT.all.mb58.gz 129.83MB Kongsberg multibeam vendor format
0082_20120713_025535_TGT.all.mb58.gz 126.18MB Kongsberg multibeam vendor format
0083_20120713_032535_TGT.all.mb58.gz 109.51MB Kongsberg multibeam vendor format
0084_20120713_035535_TGT.all.mb58.gz 90.01MB Kongsberg multibeam vendor format
0085_20120713_042535_TGT.all.mb58.gz 90.32MB Kongsberg multibeam vendor format
0086_20120713_045535_TGT.all.mb58.gz 94.61MB Kongsberg multibeam vendor format
0087_20120713_052535_TGT.all.mb58.gz 73.01MB Kongsberg multibeam vendor format
0088_20120713_055536_TGT.all.mb58.gz 95.23MB Kongsberg multibeam vendor format
0089_20120713_062535_TGT.all.mb58.gz 104.63MB Kongsberg multibeam vendor format
0090_20120713_065535_TGT.all.mb58.gz 106.90MB Kongsberg multibeam vendor format
0091_20120713_072535_TGT.all.mb58.gz 81.08MB Kongsberg multibeam vendor format
0092_20120713_144735_TGT.all.mb58.gz 108.21MB Kongsberg multibeam vendor format
0093_20120713_151735_TGT.all.mb58.gz 107.31MB Kongsberg multibeam vendor format
0094_20120713_154735_TGT.all.mb58.gz 82.55MB Kongsberg multibeam vendor format
0095_20120713_161737_TGT.all.mb58.gz 84.60MB Kongsberg multibeam vendor format
0096_20120713_164735_TGT.all.mb58.gz 95.08MB Kongsberg multibeam vendor format
0097_20120713_171735_TGT.all.mb58.gz 89.49MB Kongsberg multibeam vendor format
0098_20120713_174736_TGT.all.mb58.gz 88.42MB Kongsberg multibeam vendor format
0099_20120713_181736_TGT.all.mb58.gz 82.57MB Kongsberg multibeam vendor format
0100_20120713_184735_TGT.all.mb58.gz 74.91MB Kongsberg multibeam vendor format
0101_20120713_191736_TGT.all.mb58.gz 15.20MB Kongsberg multibeam vendor format
0102_20120713_192511_TGT.all.mb58.gz 0.67MB Kongsberg multibeam vendor format
0103_20120713_193356_TGT.all.mb58.gz 21.15MB Kongsberg multibeam vendor format
0104_20120713_194523_TGT.all.mb58.gz 462.0KB Kongsberg multibeam vendor format
0105_20120713_194538_TGT.all.mb58.gz 0.99MB Kongsberg multibeam vendor format
0106_20120713_194610_TGT.all.mb58.gz 56.46MB Kongsberg multibeam vendor format
0107_20120713_201607_TGT.all.mb58.gz 57.58MB Kongsberg multibeam vendor format
0108_20120713_204607_TGT.all.mb58.gz 53.94MB Kongsberg multibeam vendor format
0109_20120713_211608_TGT.all.mb58.gz 51.75MB Kongsberg multibeam vendor format
0110_20120713_214608_TGT.all.mb58.gz 48.13MB Kongsberg multibeam vendor format
0111_20120713_221609_TGT.all.mb58.gz 46.80MB Kongsberg multibeam vendor format
0112_20120713_224607_TGT.all.mb58.gz 45.71MB Kongsberg multibeam vendor format
0113_20120713_231607_TGT.all.mb58.gz 44.60MB Kongsberg multibeam vendor format
0114_20120713_234609_TGT.all.mb58.gz 44.16MB Kongsberg multibeam vendor format
0115_20120714_001609_TGT.all.mb58.gz 44.21MB Kongsberg multibeam vendor format
0116_20120714_004607_TGT.all.mb58.gz 44.35MB Kongsberg multibeam vendor format
0117_20120714_011608_TGT.all.mb58.gz 44.37MB Kongsberg multibeam vendor format
0118_20120714_014608_TGT.all.mb58.gz 44.75MB Kongsberg multibeam vendor format
0119_20120714_021608_TGT.all.mb58.gz 44.70MB Kongsberg multibeam vendor format
0120_20120714_024606_TGT.all.mb58.gz 44.99MB Kongsberg multibeam vendor format
0121_20120714_031608_TGT.all.mb58.gz 45.01MB Kongsberg multibeam vendor format
0122_20120714_034606_TGT.all.mb58.gz 44.93MB Kongsberg multibeam vendor format
0123_20120714_041609_TGT.all.mb58.gz 44.91MB Kongsberg multibeam vendor format
0124_20120714_044607_TGT.all.mb58.gz 44.83MB Kongsberg multibeam vendor format
0125_20120714_051609_TGT.all.mb58.gz 45.24MB Kongsberg multibeam vendor format
0126_20120714_054609_TGT.all.mb58.gz 45.51MB Kongsberg multibeam vendor format
0127_20120714_061608_TGT.all.mb58.gz 33.83MB Kongsberg multibeam vendor format
0128_20120714_064606_TGT.all.mb58.gz 28.32MB Kongsberg multibeam vendor format
0129_20120714_071612_TGT.all.mb58.gz 28.61MB Kongsberg multibeam vendor format
0130_20120714_074609_TGT.all.mb58.gz 29.39MB Kongsberg multibeam vendor format
0131_20120714_081607_TGT.all.mb58.gz 29.00MB Kongsberg multibeam vendor format
0132_20120714_084607_TGT.all.mb58.gz 27.82MB Kongsberg multibeam vendor format
0133_20120714_091607_TGT.all.mb58.gz 28.30MB Kongsberg multibeam vendor format
0134_20120714_094606_TGT.all.mb58.gz 28.36MB Kongsberg multibeam vendor format
0135_20120714_101608_TGT.all.mb58.gz 28.52MB Kongsberg multibeam vendor format
0136_20120714_104608_TGT.all.mb58.gz 28.96MB Kongsberg multibeam vendor format
0137_20120714_111609_TGT.all.mb58.gz 39.46MB Kongsberg multibeam vendor format
0138_20120714_114608_TGT.all.mb58.gz 45.80MB Kongsberg multibeam vendor format
0139_20120714_121607_TGT.all.mb58.gz 53.45MB Kongsberg multibeam vendor format
0140_20120714_124608_TGT.all.mb58.gz 53.39MB Kongsberg multibeam vendor format
0141_20120714_131608_TGT.all.mb58.gz 46.14MB Kongsberg multibeam vendor format
0142_20120714_153249_TGT.all.mb58.gz 60.47MB Kongsberg multibeam vendor format
0143_20120714_160251_TGT.all.mb58.gz 55.73MB Kongsberg multibeam vendor format
0144_20120714_163250_TGT.all.mb58.gz 55.65MB Kongsberg multibeam vendor format
0145_20120714_170251_TGT.all.mb58.gz 59.72MB Kongsberg multibeam vendor format
0146_20120714_173250_TGT.all.mb58.gz 61.81MB Kongsberg multibeam vendor format
0147_20120714_180251_TGT.all.mb58.gz 62.20MB Kongsberg multibeam vendor format
0148_20120714_183250_TGT.all.mb58.gz 15.92MB Kongsberg multibeam vendor format
0149_20120715_004134_TGT.all.mb58.gz 58.45MB Kongsberg multibeam vendor format
0150_20120715_011135_TGT.all.mb58.gz 55.90MB Kongsberg multibeam vendor format
0151_20120715_014135_TGT.all.mb58.gz 60.45MB Kongsberg multibeam vendor format
0152_20120715_021135_TGT.all.mb58.gz 5.86MB Kongsberg multibeam vendor format
0153_20120715_021417_TGT.all.mb58.gz 1.67MB Kongsberg multibeam vendor format
0154_20120715_021503_TGT.all.mb58.gz 71.79MB Kongsberg multibeam vendor format
0155_20120715_024501_TGT.all.mb58.gz 10.19MB Kongsberg multibeam vendor format
0156_20120715_024901_TGT.all.mb58.gz 1.06MB Kongsberg multibeam vendor format
0157_20120715_024926_TGT.all.mb58.gz 76.87MB Kongsberg multibeam vendor format
0158_20120715_031924_TGT.all.mb58.gz 85.87MB Kongsberg multibeam vendor format
0159_20120715_034924_TGT.all.mb58.gz 92.41MB Kongsberg multibeam vendor format
0160_20120715_041925_TGT.all.mb58.gz 92.40MB Kongsberg multibeam vendor format
0161_20120715_044924_TGT.all.mb58.gz 92.59MB Kongsberg multibeam vendor format
0162_20120715_051925_TGT.all.mb58.gz 92.25MB Kongsberg multibeam vendor format
0163_20120715_054924_TGT.all.mb58.gz 92.88MB Kongsberg multibeam vendor format
0164_20120715_061925_TGT.all.mb58.gz 92.33MB Kongsberg multibeam vendor format
0165_20120715_064925_TGT.all.mb58.gz 92.20MB Kongsberg multibeam vendor format
0166_20120715_071925_TGT.all.mb58.gz 92.44MB Kongsberg multibeam vendor format
0167_20120715_074925_TGT.all.mb58.gz 92.16MB Kongsberg multibeam vendor format
0168_20120715_081925_TGT.all.mb58.gz 91.96MB Kongsberg multibeam vendor format
0169_20120715_084925_TGT.all.mb58.gz 79.75MB Kongsberg multibeam vendor format
0170_20120715_140119_TGT.all.mb58.gz 1.01MB Kongsberg multibeam vendor format
0171_20120715_140308_TGT.all.mb58.gz 80.49MB Kongsberg multibeam vendor format
0172_20120715_143306_TGT.all.mb58.gz 60.39MB Kongsberg multibeam vendor format
0173_20120715_150307_TGT.all.mb58.gz 44.64MB Kongsberg multibeam vendor format
0174_20120715_153306_TGT.all.mb58.gz 8.91MB Kongsberg multibeam vendor format
0175_20120715_155007_TGT.all.mb58.gz 33.35MB Kongsberg multibeam vendor format
0176_20120715_162004_TGT.all.mb58.gz 27.91MB Kongsberg multibeam vendor format
0177_20120715_165004_TGT.all.mb58.gz 19.94MB Kongsberg multibeam vendor format
0178_20120715_184611_TGT.all.mb58.gz 26.57MB Kongsberg multibeam vendor format
0179_20120715_191546_TGT.all.mb58.gz 0.75MB Kongsberg multibeam vendor format
0180_20120715_191921_TGT.all.mb58.gz 320.4KB Kongsberg multibeam vendor format
0181_20120715_192227_TGT.all.mb58.gz 174.7KB Kongsberg multibeam vendor format
0182_20120715_192359_TGT.all.mb58.gz 27.79MB Kongsberg multibeam vendor format
0183_20120715_195357_TGT.all.mb58.gz 30.42MB Kongsberg multibeam vendor format
0184_20120715_202357_TGT.all.mb58.gz 30.30MB Kongsberg multibeam vendor format
0185_20120715_205357_TGT.all.mb58.gz 38.73MB Kongsberg multibeam vendor format
0186_20120715_212356_TGT.all.mb58.gz 82.29MB Kongsberg multibeam vendor format
0187_20120715_215354_TGT.all.mb58.gz 99.91MB Kongsberg multibeam vendor format
0188_20120715_222355_TGT.all.mb58.gz 137.83MB Kongsberg multibeam vendor format
0189_20120715_225354_TGT.all.mb58.gz 111.84MB Kongsberg multibeam vendor format
0190_20120715_232354_TGT.all.mb58.gz 86.00MB Kongsberg multibeam vendor format
0191_20120715_235355_TGT.all.mb58.gz 65.26MB Kongsberg multibeam vendor format
0192_20120716_002355_TGT.all.mb58.gz 63.19MB Kongsberg multibeam vendor format
0193_20120716_005356_TGT.all.mb58.gz 66.34MB Kongsberg multibeam vendor format
0194_20120716_012354_TGT.all.mb58.gz 66.06MB Kongsberg multibeam vendor format
0195_20120716_015356_TGT.all.mb58.gz 66.64MB Kongsberg multibeam vendor format
0196_20120716_022355_TGT.all.mb58.gz 66.66MB Kongsberg multibeam vendor format
0197_20120716_025355_TGT.all.mb58.gz 66.56MB Kongsberg multibeam vendor format
0198_20120716_032355_TGT.all.mb58.gz 18.37MB Kongsberg multibeam vendor format
0199_20120716_033323_TGT.all.mb58.gz 32.29MB Kongsberg multibeam vendor format
0200_20120716_034800_TGT.all.mb58.gz 64.19MB Kongsberg multibeam vendor format
0201_20120716_041759_TGT.all.mb58.gz 64.43MB Kongsberg multibeam vendor format
0202_20120716_044759_TGT.all.mb58.gz 65.80MB Kongsberg multibeam vendor format
0203_20120716_051759_TGT.all.mb58.gz 61.74MB Kongsberg multibeam vendor format
0204_20120716_054758_TGT.all.mb58.gz 54.49MB Kongsberg multibeam vendor format
0205_20120716_061758_TGT.all.mb58.gz 48.24MB Kongsberg multibeam vendor format
0206_20120716_064759_TGT.all.mb58.gz 42.68MB Kongsberg multibeam vendor format
0207_20120716_071758_TGT.all.mb58.gz 35.19MB Kongsberg multibeam vendor format
0208_20120716_075243_TGT.all.mb58.gz 41.51MB Kongsberg multibeam vendor format
0209_20120716_104042_TGT.all.mb58.gz 38.46MB Kongsberg multibeam vendor format
0210_20120716_111042_TGT.all.mb58.gz 29.35MB Kongsberg multibeam vendor format
0211_20120716_114044_TGT.all.mb58.gz 17.08MB Kongsberg multibeam vendor format
0212_20120716_115851_TGT.all.mb58.gz 12.63MB Kongsberg multibeam vendor format
0213_20120716_121232_TGT.all.mb58.gz 0.61MB Kongsberg multibeam vendor format
0214_20120716_121311_TGT.all.mb58.gz 27.82MB Kongsberg multibeam vendor format
0215_20120716_124305_TGT.all.mb58.gz 28.48MB Kongsberg multibeam vendor format
0216_20120716_131306_TGT.all.mb58.gz 29.46MB Kongsberg multibeam vendor format
0217_20120716_134305_TGT.all.mb58.gz 27.88MB Kongsberg multibeam vendor format
0218_20120716_141308_TGT.all.mb58.gz 26.92MB Kongsberg multibeam vendor format
0219_20120716_144304_TGT.all.mb58.gz 27.17MB Kongsberg multibeam vendor format
0220_20120716_151304_TGT.all.mb58.gz 26.51MB Kongsberg multibeam vendor format
0221_20120716_154303_TGT.all.mb58.gz 26.75MB Kongsberg multibeam vendor format
0222_20120716_161304_TGT.all.mb58.gz 26.55MB Kongsberg multibeam vendor format
0223_20120716_164309_TGT.all.mb58.gz 27.35MB Kongsberg multibeam vendor format
0224_20120716_171308_TGT.all.mb58.gz 29.97MB Kongsberg multibeam vendor format
0225_20120716_174304_TGT.all.mb58.gz 31.27MB Kongsberg multibeam vendor format
0226_20120716_181306_TGT.all.mb58.gz 28.11MB Kongsberg multibeam vendor format
0227_20120716_184303_TGT.all.mb58.gz 28.19MB Kongsberg multibeam vendor format
0228_20120716_191305_TGT.all.mb58.gz 28.27MB Kongsberg multibeam vendor format
0229_20120716_194309_TGT.all.mb58.gz 27.39MB Kongsberg multibeam vendor format
0230_20120716_201309_TGT.all.mb58.gz 26.69MB Kongsberg multibeam vendor format
0231_20120716_204304_TGT.all.mb58.gz 27.28MB Kongsberg multibeam vendor format
0232_20120716_211305_TGT.all.mb58.gz 31.37MB Kongsberg multibeam vendor format
0233_20120716_214305_TGT.all.mb58.gz 42.58MB Kongsberg multibeam vendor format
0234_20120716_221305_TGT.all.mb58.gz 42.20MB Kongsberg multibeam vendor format
0235_20120716_224305_TGT.all.mb58.gz 43.12MB Kongsberg multibeam vendor format
0236_20120716_231303_TGT.all.mb58.gz 34.23MB Kongsberg multibeam vendor format
0238_20120717_010034_TGT.all.mb58.gz 37.25MB Kongsberg multibeam vendor format
0239_20120717_013024_TGT.all.mb58.gz 31.44MB Kongsberg multibeam vendor format
0240_20120717_020024_TGT.all.mb58.gz 31.50MB Kongsberg multibeam vendor format
0241_20120717_023022_TGT.all.mb58.gz 33.30MB Kongsberg multibeam vendor format
0242_20120717_030026_TGT.all.mb58.gz 28.69MB Kongsberg multibeam vendor format
0243_20120717_033025_TGT.all.mb58.gz 29.97MB Kongsberg multibeam vendor format
0244_20120717_040021_TGT.all.mb58.gz 28.19MB Kongsberg multibeam vendor format
0245_20120717_043027_TGT.all.mb58.gz 27.35MB Kongsberg multibeam vendor format
0246_20120717_050022_TGT.all.mb58.gz 27.21MB Kongsberg multibeam vendor format
0247_20120717_053024_TGT.all.mb58.gz 26.81MB Kongsberg multibeam vendor format
0248_20120717_060028_TGT.all.mb58.gz 24.56MB Kongsberg multibeam vendor format
0249_20120717_081041_TGT.all.mb58.gz 26.41MB Kongsberg multibeam vendor format
0250_20120717_084036_TGT.all.mb58.gz 26.58MB Kongsberg multibeam vendor format
0251_20120717_091043_TGT.all.mb58.gz 26.60MB Kongsberg multibeam vendor format
0252_20120717_094040_TGT.all.mb58.gz 26.43MB Kongsberg multibeam vendor format
0253_20120717_101036_TGT.all.mb58.gz 26.38MB Kongsberg multibeam vendor format
0254_20120717_104042_TGT.all.mb58.gz 26.85MB Kongsberg multibeam vendor format
0255_20120717_111037_TGT.all.mb58.gz 28.31MB Kongsberg multibeam vendor format
0256_20120717_114041_TGT.all.mb58.gz 29.63MB Kongsberg multibeam vendor format
0257_20120717_121039_TGT.all.mb58.gz 30.04MB Kongsberg multibeam vendor format
0258_20120717_124041_TGT.all.mb58.gz 30.12MB Kongsberg multibeam vendor format
0259_20120717_131039_TGT.all.mb58.gz 30.21MB Kongsberg multibeam vendor format
0260_20120717_134039_TGT.all.mb58.gz 30.00MB Kongsberg multibeam vendor format
0261_20120717_141037_TGT.all.mb58.gz 3.92MB Kongsberg multibeam vendor format
0262_20120717_151328_TGT.all.mb58.gz 29.97MB Kongsberg multibeam vendor format
0263_20120717_154329_TGT.all.mb58.gz 30.02MB Kongsberg multibeam vendor format
0264_20120717_161327_TGT.all.mb58.gz 29.74MB Kongsberg multibeam vendor format
0265_20120717_164326_TGT.all.mb58.gz 29.77MB Kongsberg multibeam vendor format
0266_20120717_171326_TGT.all.mb58.gz 18.09MB Kongsberg multibeam vendor format
0267_20120717_183933_TGT.all.mb58.gz 29.57MB Kongsberg multibeam vendor format
0268_20120717_190925_TGT.all.mb58.gz 30.47MB Kongsberg multibeam vendor format
0269_20120717_193924_TGT.all.mb58.gz 31.28MB Kongsberg multibeam vendor format
0270_20120717_200920_TGT.all.mb58.gz 30.78MB Kongsberg multibeam vendor format
0271_20120717_203921_TGT.all.mb58.gz 32.41MB Kongsberg multibeam vendor format
0272_20120717_210923_TGT.all.mb58.gz 31.15MB Kongsberg multibeam vendor format
0273_20120717_213922_TGT.all.mb58.gz 32.13MB Kongsberg multibeam vendor format
0274_20120717_220923_TGT.all.mb58.gz 53.56MB Kongsberg multibeam vendor format
0275_20120717_223921_TGT.all.mb58.gz 26.47MB Kongsberg multibeam vendor format
0276_20120718_065210_TGT.all.mb58.gz 84.69MB Kongsberg multibeam vendor format
0277_20120718_072209_TGT.all.mb58.gz 81.59MB Kongsberg multibeam vendor format
0278_20120718_075209_TGT.all.mb58.gz 24.34MB Kongsberg multibeam vendor format
0279_20120718_114602_TGT.all.mb58.gz 65.42MB Kongsberg multibeam vendor format
0280_20120718_121603_TGT.all.mb58.gz 50.14MB Kongsberg multibeam vendor format
0281_20120718_124605_TGT.all.mb58.gz 37.82MB Kongsberg multibeam vendor format
0282_20120718_131608_TGT.all.mb58.gz 29.20MB Kongsberg multibeam vendor format
0283_20120718_134606_TGT.all.mb58.gz 29.40MB Kongsberg multibeam vendor format
0284_20120718_141609_TGT.all.mb58.gz 29.38MB Kongsberg multibeam vendor format
0285_20120718_144606_TGT.all.mb58.gz 29.29MB Kongsberg multibeam vendor format
0286_20120718_151604_TGT.all.mb58.gz 26.23MB Kongsberg multibeam vendor format
0287_20120718_154606_TGT.all.mb58.gz 27.33MB Kongsberg multibeam vendor format
0288_20120718_161604_TGT.all.mb58.gz 7.26MB Kongsberg multibeam vendor format
0289_20120718_181235_TGT.all.mb58.gz 26.69MB Kongsberg multibeam vendor format
0290_20120718_184228_TGT.all.mb58.gz 26.23MB Kongsberg multibeam vendor format
0291_20120718_191225_TGT.all.mb58.gz 26.39MB Kongsberg multibeam vendor format
0292_20120718_194223_TGT.all.mb58.gz 26.43MB Kongsberg multibeam vendor format
0293_20120718_201231_TGT.all.mb58.gz 26.46MB Kongsberg multibeam vendor format
0294_20120718_204226_TGT.all.mb58.gz 26.91MB Kongsberg multibeam vendor format
0295_20120718_211224_TGT.all.mb58.gz 27.29MB Kongsberg multibeam vendor format
0296_20120718_214229_TGT.all.mb58.gz 28.05MB Kongsberg multibeam vendor format
0297_20120718_221228_TGT.all.mb58.gz 4.90MB Kongsberg multibeam vendor format
0298_20120718_221742_TGT.all.mb58.gz 28.10MB Kongsberg multibeam vendor format
0299_20120718_224735_TGT.all.mb58.gz 28.05MB Kongsberg multibeam vendor format
0300_20120718_231734_TGT.all.mb58.gz 29.46MB Kongsberg multibeam vendor format
0301_20120718_234733_TGT.all.mb58.gz 42.98MB Kongsberg multibeam vendor format
0302_20120719_001733_TGT.all.mb58.gz 53.08MB Kongsberg multibeam vendor format
0303_20120719_004733_TGT.all.mb58.gz 84.48MB Kongsberg multibeam vendor format
0304_20120719_011732_TGT.all.mb58.gz 60.26MB Kongsberg multibeam vendor format
0305_20120719_035603_TGT.all.mb58.gz 94.56MB Kongsberg multibeam vendor format
0306_20120719_042552_TGT.all.mb58.gz 88.68MB Kongsberg multibeam vendor format
0307_20120719_045552_TGT.all.mb58.gz 26.86MB Kongsberg multibeam vendor format
0308_20120719_114425_TGT.all.mb58.gz 64.26MB Kongsberg multibeam vendor format
0309_20120719_121427_TGT.all.mb58.gz 9.03MB Kongsberg multibeam vendor format
0310_20120719_122250_TGT.all.mb58.gz 9.77MB Kongsberg multibeam vendor format
0311_20120719_170249_TGT.all.mb58.gz 43.77MB Kongsberg multibeam vendor format
0312_20120719_173251_TGT.all.mb58.gz 69.43MB Kongsberg multibeam vendor format
0313_20120719_180249_TGT.all.mb58.gz 45.88MB Kongsberg multibeam vendor format
0314_20120719_185906_TGT.all.mb58.gz 1.42MB Kongsberg multibeam vendor format
0315_20120719_190238_TGT.all.mb58.gz 71.26MB Kongsberg multibeam vendor format
0316_20120719_210800_TGT.all.mb58.gz 87.85MB Kongsberg multibeam vendor format
0317_20120719_213758_TGT.all.mb58.gz 88.85MB Kongsberg multibeam vendor format
0318_20120719_220758_TGT.all.mb58.gz 97.52MB Kongsberg multibeam vendor format
0319_20120719_223758_TGT.all.mb58.gz 112.21MB Kongsberg multibeam vendor format
0320_20120719_230758_TGT.all.mb58.gz 113.48MB Kongsberg multibeam vendor format
0321_20120720_001426_TGT.all.mb58.gz 142.41MB Kongsberg multibeam vendor format
0322_20120720_004419_TGT.all.mb58.gz 157.75MB Kongsberg multibeam vendor format
0323_20120720_020437_TGT.all.mb58.gz 71.88MB Kongsberg multibeam vendor format
0324_20120720_021924_TGT.all.mb58.gz 123.08MB Kongsberg multibeam vendor format
0325_20120720_024923_TGT.all.mb58.gz 104.47MB Kongsberg multibeam vendor format
0326_20120720_031923_TGT.all.mb58.gz 88.54MB Kongsberg multibeam vendor format
0327_20120720_034923_TGT.all.mb58.gz 73.64MB Kongsberg multibeam vendor format
0328_20120720_064608_TGT.all.mb58.gz 62.02MB Kongsberg multibeam vendor format
0329_20120720_071608_TGT.all.mb58.gz 36.03MB Kongsberg multibeam vendor format
0330_20120720_074610_TGT.all.mb58.gz 26.62MB Kongsberg multibeam vendor format
0331_20120720_113356_TGT.all.mb58.gz 44.26MB Kongsberg multibeam vendor format
0332_20120720_120400_TGT.all.mb58.gz 28.11MB Kongsberg multibeam vendor format
0333_20120720_123356_TGT.all.mb58.gz 27.42MB Kongsberg multibeam vendor format
0334_20120720_130356_TGT.all.mb58.gz 10.43MB Kongsberg multibeam vendor format
0335_20120720_143525_TGT.all.mb58.gz 27.32MB Kongsberg multibeam vendor format
0336_20120720_150524_TGT.all.mb58.gz 27.43MB Kongsberg multibeam vendor format
0337_20120720_153526_TGT.all.mb58.gz 11.64MB Kongsberg multibeam vendor format
0338_20120720_165311_TGT.all.mb58.gz 28.15MB Kongsberg multibeam vendor format
0339_20120720_172312_TGT.all.mb58.gz 34.88MB Kongsberg multibeam vendor format
0340_20120720_175309_TGT.all.mb58.gz 46.57MB Kongsberg multibeam vendor format
0341_20120720_182309_TGT.all.mb58.gz 3.82MB Kongsberg multibeam vendor format
0342_20120720_182528_TGT.all.mb58.gz 3.21MB Kongsberg multibeam vendor format
0343_20120720_182717_TGT.all.mb58.gz 84.88MB Kongsberg multibeam vendor format
0344_20120720_185714_TGT.all.mb58.gz 79.53MB Kongsberg multibeam vendor format
0345_20120720_215538_TGT.all.mb58.gz 89.48MB Kongsberg multibeam vendor format
0346_20120720_222528_TGT.all.mb58.gz 104.23MB Kongsberg multibeam vendor format
0347_20120720_225529_TGT.all.mb58.gz 122.76MB Kongsberg multibeam vendor format
0348_20120720_232529_TGT.all.mb58.gz 39.55MB Kongsberg multibeam vendor format
0349_20120721_032207_TGT.all.mb58.gz 0.82MB Kongsberg multibeam vendor format
0350_20120721_032458_TGT.all.mb58.gz 76.42MB Kongsberg multibeam vendor format
0351_20120721_034357_TGT.all.mb58.gz 1.49MB Kongsberg multibeam vendor format
0352_20120721_034417_TGT.all.mb58.gz 124.08MB Kongsberg multibeam vendor format
0353_20120721_041417_TGT.all.mb58.gz 83.35MB Kongsberg multibeam vendor format
0354_20120721_075857_TGT.all.mb58.gz 1.37MB Kongsberg multibeam vendor format
0355_20120721_080828_TGT.all.mb58.gz 139.14MB Kongsberg multibeam vendor format
0356_20120721_083829_TGT.all.mb58.gz 106.34MB Kongsberg multibeam vendor format
0357_20120721_090829_TGT.all.mb58.gz 62.51MB Kongsberg multibeam vendor format
0358_20120721_093829_TGT.all.mb58.gz 48.81MB Kongsberg multibeam vendor format
0359_20120721_100830_TGT.all.mb58.gz 22.41MB Kongsberg multibeam vendor format
0360_20120721_102923_TGT.all.mb58.gz 28.41MB Kongsberg multibeam vendor format
0361_20120721_105919_TGT.all.mb58.gz 14.42MB Kongsberg multibeam vendor format
0362_20120721_122751_TGT.all.mb58.gz 27.85MB Kongsberg multibeam vendor format
0363_20120721_125754_TGT.all.mb58.gz 29.21MB Kongsberg multibeam vendor format
0364_20120721_132752_TGT.all.mb58.gz 42.32MB Kongsberg multibeam vendor format
0365_20120721_135753_TGT.all.mb58.gz 52.54MB Kongsberg multibeam vendor format
0366_20120721_142752_TGT.all.mb58.gz 93.75MB Kongsberg multibeam vendor format
0367_20120721_145751_TGT.all.mb58.gz 118.53MB Kongsberg multibeam vendor format
0368_20120721_152751_TGT.all.mb58.gz 148.36MB Kongsberg multibeam vendor format
0369_20120721_155751_TGT.all.mb58.gz 187.72MB Kongsberg multibeam vendor format
0370_20120721_162751_TGT.all.mb58.gz 152.14MB Kongsberg multibeam vendor format
0371_20120721_165751_TGT.all.mb58.gz 173.90MB Kongsberg multibeam vendor format
0372_20120721_172751_TGT.all.mb58.gz 81.84MB Kongsberg multibeam vendor format
0373_20120721_224008_TGT.all.mb58.gz 138.69MB Kongsberg multibeam vendor format
0374_20120721_231008_TGT.all.mb58.gz 113.47MB Kongsberg multibeam vendor format
0375_20120721_234008_TGT.all.mb58.gz 97.07MB Kongsberg multibeam vendor format
0376_20120722_001009_TGT.all.mb58.gz 87.71MB Kongsberg multibeam vendor format
0377_20120722_004009_TGT.all.mb58.gz 73.88MB Kongsberg multibeam vendor format
0378_20120722_034224_TGT.all.mb58.gz 67.96MB Kongsberg multibeam vendor format
0379_20120722_041225_TGT.all.mb58.gz 85.05MB Kongsberg multibeam vendor format
0380_20120722_044224_TGT.all.mb58.gz 83.31MB Kongsberg multibeam vendor format
0381_20120722_051225_TGT.all.mb58.gz 67.12MB Kongsberg multibeam vendor format
0382_20120722_054226_TGT.all.mb58.gz 52.35MB Kongsberg multibeam vendor format
0383_20120722_061225_TGT.all.mb58.gz 42.70MB Kongsberg multibeam vendor format
0384_20120722_064229_TGT.all.mb58.gz 41.34MB Kongsberg multibeam vendor format
0385_20120722_071225_TGT.all.mb58.gz 32.94MB Kongsberg multibeam vendor format
0386_20120722_074225_TGT.all.mb58.gz 49.70MB Kongsberg multibeam vendor format
0387_20120722_081225_TGT.all.mb58.gz 43.61MB Kongsberg multibeam vendor format
0388_20120722_084225_TGT.all.mb58.gz 40.78MB Kongsberg multibeam vendor format
0389_20120722_091229_TGT.all.mb58.gz 30.15MB Kongsberg multibeam vendor format
0390_20120722_094230_TGT.all.mb58.gz 29.47MB Kongsberg multibeam vendor format
0391_20120722_101226_TGT.all.mb58.gz 29.25MB Kongsberg multibeam vendor format
0392_20120722_104226_TGT.all.mb58.gz 29.12MB Kongsberg multibeam vendor format
0393_20120722_111230_TGT.all.mb58.gz 28.98MB Kongsberg multibeam vendor format
0394_20120722_114230_TGT.all.mb58.gz 28.63MB Kongsberg multibeam vendor format
0395_20120722_121231_TGT.all.mb58.gz 28.23MB Kongsberg multibeam vendor format
0396_20120722_124229_TGT.all.mb58.gz 28.05MB Kongsberg multibeam vendor format
0397_20120722_131225_TGT.all.mb58.gz 27.40MB Kongsberg multibeam vendor format
0398_20120722_134229_TGT.all.mb58.gz 26.89MB Kongsberg multibeam vendor format
0399_20120722_141232_TGT.all.mb58.gz 26.47MB Kongsberg multibeam vendor format
0400_20120722_144226_TGT.all.mb58.gz 26.49MB Kongsberg multibeam vendor format
0401_20120722_151226_TGT.all.mb58.gz 314.1KB Kongsberg multibeam vendor format
0402_20120722_192925_TGT.all.mb58.gz 27.56MB Kongsberg multibeam vendor format
0403_20120722_195932_TGT.all.mb58.gz 27.83MB Kongsberg multibeam vendor format
0404_20120722_202929_TGT.all.mb58.gz 28.26MB Kongsberg multibeam vendor format
0405_20120722_205932_TGT.all.mb58.gz 29.08MB Kongsberg multibeam vendor format
0406_20120722_212930_TGT.all.mb58.gz 42.40MB Kongsberg multibeam vendor format
0407_20120722_215926_TGT.all.mb58.gz 71.59MB Kongsberg multibeam vendor format
0408_20120722_222926_TGT.all.mb58.gz 88.96MB Kongsberg multibeam vendor format
0409_20120722_225926_TGT.all.mb58.gz 105.50MB Kongsberg multibeam vendor format
0410_20120722_232925_TGT.all.mb58.gz 91.59MB Kongsberg multibeam vendor format
0411_20120722_235926_TGT.all.mb58.gz 91.58MB Kongsberg multibeam vendor format
0412_20120723_002926_TGT.all.mb58.gz 98.01MB Kongsberg multibeam vendor format
0413_20120723_005926_TGT.all.mb58.gz 69.68MB Kongsberg multibeam vendor format
0414_20120723_012926_TGT.all.mb58.gz 68.39MB Kongsberg multibeam vendor format
0415_20120723_015926_TGT.all.mb58.gz 125.59MB Kongsberg multibeam vendor format
0416_20120723_022926_TGT.all.mb58.gz 147.33MB Kongsberg multibeam vendor format
0417_20120723_025926_TGT.all.mb58.gz 148.50MB Kongsberg multibeam vendor format
0418_20120723_032926_TGT.all.mb58.gz 148.44MB Kongsberg multibeam vendor format
0419_20120723_035926_TGT.all.mb58.gz 149.11MB Kongsberg multibeam vendor format
0420_20120723_042926_TGT.all.mb58.gz 98.17MB Kongsberg multibeam vendor format
0420_20120723_045139_TGT.all.mb58.gz 107.92MB Kongsberg multibeam vendor format
0421_20120723_052140_TGT.all.mb58.gz 76.67MB Kongsberg multibeam vendor format
0422_20120723_055140_TGT.all.mb58.gz 76.52MB Kongsberg multibeam vendor format
0423_20120723_062140_TGT.all.mb58.gz 76.46MB Kongsberg multibeam vendor format
0424_20120723_065140_TGT.all.mb58.gz 76.11MB Kongsberg multibeam vendor format
0425_20120723_072140_TGT.all.mb58.gz 80.34MB Kongsberg multibeam vendor format
0426_20120723_075140_TGT.all.mb58.gz 87.83MB Kongsberg multibeam vendor format
0427_20120723_082140_TGT.all.mb58.gz 87.89MB Kongsberg multibeam vendor format
0428_20120723_085140_TGT.all.mb58.gz 87.76MB Kongsberg multibeam vendor format
0429_20120723_092140_TGT.all.mb58.gz 89.06MB Kongsberg multibeam vendor format
0430_20120723_095140_TGT.all.mb58.gz 101.64MB Kongsberg multibeam vendor format
0431_20120723_102140_TGT.all.mb58.gz 99.66MB Kongsberg multibeam vendor format
0432_20120723_105140_TGT.all.mb58.gz 148.13MB Kongsberg multibeam vendor format
0433_20120723_112139_TGT.all.mb58.gz 150.13MB Kongsberg multibeam vendor format
0434_20120723_115139_TGT.all.mb58.gz 183.20MB Kongsberg multibeam vendor format
0435_20120723_122140_TGT.all.mb58.gz 124.24MB Kongsberg multibeam vendor format
0436_20120723_125139_TGT.all.mb58.gz 144.78MB Kongsberg multibeam vendor format
0437_20120723_132140_TGT.all.mb58.gz 121.81MB Kongsberg multibeam vendor format
0438_20120723_135139_TGT.all.mb58.gz 107.48MB Kongsberg multibeam vendor format
0439_20120723_142140_TGT.all.mb58.gz 106.95MB Kongsberg multibeam vendor format
0440_20120723_145140_TGT.all.mb58.gz 112.08MB Kongsberg multibeam vendor format
0441_20120723_152140_TGT.all.mb58.gz 82.94MB Kongsberg multibeam vendor format
0442_20120723_155140_TGT.all.mb58.gz 71.49MB Kongsberg multibeam vendor format
0443_20120723_162140_TGT.all.mb58.gz 71.29MB Kongsberg multibeam vendor format
0444_20120723_165140_TGT.all.mb58.gz 75.17MB Kongsberg multibeam vendor format
0445_20120723_172140_TGT.all.mb58.gz 105.76MB Kongsberg multibeam vendor format
0446_20120723_175140_TGT.all.mb58.gz 102.31MB Kongsberg multibeam vendor format
0447_20120723_182140_TGT.all.mb58.gz 71.24MB Kongsberg multibeam vendor format
0448_20120723_185140_TGT.all.mb58.gz 59.09MB Kongsberg multibeam vendor format

Metadata Files: 2

Files File Size Description
TN283_Multibeam.xml NCEI created ISO metadata
xbt_bag_info.tar.gz 1.4KB Additional cruise information

Ancillary Files: 2

Files File Size Description
asvp.tar.gz 8.2KB Sound Speed Profiles (SSP or SVP)
xbt.tar.gz 38.0KB Expendable Bathythermograph (XBT) data